Regional Weather Roundup
Issued by NWS

Home | Current Version | Previous Version | Graphics & Text | Print | Product List | Glossary On
Versions: 1 2 3 4 5 6 7 8 9 10 11 12 13 14 15 16 17 18 19 20 21 22 23 24 25 26 27 28
000
ASUS45 KTFX 302210
RWRMT
MONTANA REGIONAL WEATHER ROUNDUP
NATIONAL WEATHER SERVICE GREAT FALLS MT
400 PM MDT SAT APR 30 2016

NOTE: "FAIR" INDICATES FEW OR NO CLOUDS BELOW 12000 FEET WITH NO
SIGNIFICANT WEATHER AND/OR OBSTRUCTIONS TO VISIBILITY.

MTZ001>007-043-302300-
WEST OF THE DIVIDE

CITY           SKY/WX    TMP DP  RH WIND       PRES   REMARKS
KALISPELL      CLOUDY    62  32  32 NE13      30.19S
MISSOULA       LGT RAIN  54  39  57 VRB3      30.22S
BUTTE          CLOUDY    45  30  55 NE10      30.18R
MULLAN PASS    CLOUDY    42  31  64 CALM      30.24R
ANACONDA         N/A     48  30  49 N14G22    30.18R
DEER LODGE       N/A     48  34  57 NE13      30.21R
EUREKA           N/A     63  34  34 NW3       30.21R
HAMILTON         N/A     52  37  58 N7        30.19S
LIBBY            N/A     63  30  29 W6        30.21R
$$

MTZ008-052>055-302300-
SOUTHWEST MONTANA

CITY           SKY/WX    TMP DP  RH WIND       PRES   REMARKS
BOZEMAN        CLOUDY    51  32  48 NE12G21   30.18R
DILLON         CLOUDY    50  29  44 NE16      30.12S
ENNIS          CLOUDY    48  30  49 NE21      30.18S
THREE FORKS      N/A     52  23  32 N1        30.16S
TWIN BRIDGES     N/A     51  28  41 N21       30.10R
$$

MTZ009-010-012-014-046-048-049-054-302300-
EAST SLOPES AND CENTRAL MONTANA

CITY           SKY/WX    TMP DP  RH WIND       PRES   REMARKS
CUT BANK       CLOUDY    54  36  50 E12       30.27R
GREAT FALLS    CLOUDY    51  37  58 E9        30.24R
HELENA         CLOUDY    51  38  60 NE7       30.21R
CHOTEAU          N/A     50  36  57 NE13      30.26S
CONRAD           N/A     52  40  63 NE8       30.26S
$$

MTZ011-013-016-021-045-047-050-051-302300-
NORTH CENTRAL MONTANA

CITY           SKY/WX    TMP DP  RH WIND       PRES   REMARKS
HAVRE          CLOUDY    59  35  40 E13       30.26R
LEWISTOWN      CLOUDY    50  32  50 E8        30.26R
N BAR RANCH    CLOUDY    48  34  57 NE7       30.27S
CHINOOK          N/A     59  34  38 SE5       30.26R
$$

MTZ017>020-022>027-061-062-302300-
NORTHEAST MONTANA

CITY           SKY/WX    TMP DP  RH WIND       PRES   REMARKS
GLASGOW        PTSUNNY   64  29  26 E14G25    30.25S
JORDAN           N/A     60  31  33 E8        30.23S
SIDNEY         SUNNY     63  28  27 NE14G24   30.24S
WOLF POINT     MOSUNNY   65  32  29 E9G20     30.25S
PLENTYWOOD       N/A     61  25  25 NE17      30.26F
POPLAR           N/A     63  27  25 E9G21     30.25S
$$

MTZ028>42-056>058-302300-
SOUTHCENTRAL AND SOUTHEAST MONTANA

CITY           SKY/WX    TMP DP  RH WIND       PRES   REMARKS
BAKER          MOSUNNY   57  30  35 NE15G25   30.20S
BILLINGS       PTSUNNY   51  33  50 NE14      30.22R
LIVINGSTON     CLOUDY    44  35  70 E18       30.21R
MILES CITY     PTSUNNY   59  31  34 E13G18    30.21S
FORSYTH          N/A     57  30  35 NE9G18    30.21S
LAUREL           N/A     50  29  44 NE3       30.18R
ROUNDUP          N/A     54  31  41 NE9       30.13S
$$

REGIONAL REPORTS...DAKOTAS

CITY           SKY/WX    TMP DP  RH WIND       PRES   REMARKS
WILLISTON      MOSUNNY   63  28  26 E18       30.24F
MINOT          SUNNY     66  27  23 NE8G22    30.23S
DICKINSON      PTSUNNY   58  29  33 E14G22    30.18S
BEACH            N/A     57  28  33 E18G24    30.24S
CROSBY           N/A     63  25  23 E17       30.29S
WATFORD CITY     N/A     59  28  31 E14       30.25S
BISMARCK       SUNNY     60  29  30 E20G25    30.18F
GRAND FORKS    MOSUNNY   61  26  26 NE18G28   30.20S
FARGO          CLOUDY    64  22  20 E14G28    30.12F
BUFFALO SD       N/A     55  31  39 NE18G29   30.10S
RAPID CITY     CLOUDY    51  32  48 NE22G30   30.09S
$$

REGIONAL REPORTS...WYOMING/IDAHO/WASHINGTON

CITY           SKY/WX    TMP DP  RH WIND       PRES   REMARKS
GILLETTE       CLOUDY    46  32  58 NE20      30.15S
SHERIDAN       CLOUDY    50  35  56 W3        30.19F
BUFFALO WY       N/A    N/A N/A N/A MISG      30.19S
CODY           CLOUDY    45  34  65 N10G21    30.16S
YELLOWSTONE LA   N/A     39  23  52 VRB5      30.14R
IDAHO FALLS    PTSUNNY   57  30  35 N7        30.01S
SALMON         CLOUDY    54  32  43 CALM      30.11F
BOISE          PTSUNNY   69  34  27 NW22G36   29.99F
SPOKANE        PTSUNNY   63  40  42 NE5       30.22F
$$

REGIONAL REPORTS...ALBERTA

CITY           SKY/WX    TMP DP  RH WIND       PRES   REMARKS
EDMONTON       PTSUNNY   61  36  39 W7        30.21S
CALGARY        CLOUDY    54  32  43 NW5       30.28R
LETHBRIDGE     PTSUNNY   55  34  44 VRB3      30.26S
MEDICINE HAT   CLOUDY    59  36  41 NE5       30.26S
WATERTON GATE    N/A     54  30  40 E8          N/A
CARDSTON         N/A     55  32  41 E2          N/A
MILK RIVER       N/A     55  34  44 W2          N/A
ONEFOUR          N/A     55  32  41 E12G17      N/A
$$

REGIONAL REPORTS...SASKATCHEWAN

CITY           SKY/WX    TMP DP  RH WIND       PRES   REMARKS
SWIFT CURRENT  MOSUNNY   63  27  25 S8G18     30.26S
REGINA         MOSUNNY   63  25  23 VRB5G26   30.29S
SASKATOON      MOSUNNY   66  25  20 S6        30.29F
VAL MARIE        N/A     63  28  27 E9          N/A
ROCKGLEN         N/A     59  25  27 E5          N/A
ASSINIBOIA       N/A     61  32  33 SW9         N/A
$$




USA.gov is the U.S. government's official web portal to all federal, state and local government web resources and services.